EW2785 Weather Reports


time (UTC)temp
C
wind
direction
speed
KPH
gust
KPH
rain 1hr
cm
rain 24hr
cm
rain mn
cm
humidity
%
barometer
mb
20260906144557 15 5 3.2 12.9 0.00 0.03 0.00 88 1016.9
20260906143047 15 338 1.6 12.9 0.00 0.03 0.00 89 1016.8
20260906141545 15 323 3.2 9.7 0.00 0.03 0.00 90 1016.8
20260906140049 15 309 1.6 12.9 0.00 0.03 0.00 90 1016.8
20260906134543 14 26 0.0 12.9 0.00 0.03 0.00 91 1016.6
20260906133050 14 297 0.0 16.1 0.00 0.03 0.00 91 1016.7
20260906131540 14 189 0.0 8.0 0.00 0.03 0.00 92 1016.4
20260906130040 14 317 0.0 9.7 0.00 0.03 0.00 93 1016.4
20260906124538 13 311 1.6 11.3 0.00 0.03 0.00 93 1016.5
20260906123043 13 317 1.6 8.0 0.00 0.03 0.00 93 1016.3
20260906121544 13 292 1.6 12.9 0.00 0.03 0.00 93 1016.1
20260906120034 13 315 1.6 11.3 0.00 0.03 0.00 93 1016.0
20260906114536 13 185 1.6 9.7 0.00 0.03 0.00 93 1015.9
20260906113030 13 15 0.0 6.4 0.00 0.03 0.00 93 1015.8
20260906111529 13 342 1.6 9.7 0.00 0.03 0.00 93 1015.6
20260906110027 13 323 0.0 6.4 0.00 0.03 0.00 93 1015.4
20260906104525 13 313 1.6 9.7 0.00 0.03 0.00 93 1015.1
20260906103023 13 360 1.6 8.0 0.00 0.03 0.00 93 1015.1
20260906101522 13 302 1.6 8.0 0.00 0.03 0.00 93 1015.0
20260906100019 13 334 0.0 9.7 0.00 0.03 0.00 93 1014.9
20260906094518 14 280 3.2 6.4 0.00 0.03 0.00 93 1014.9
20260906093032 14 297 0.0 6.4 0.00 0.03 0.00 93 1014.6
20260906091520 14 325 0.0 8.0 0.00 0.03 0.00 92 1014.5
20260906090013 14 325 0.0 1.6 0.00 0.03 0.00 92 1014.3
20260906084511 14 325 0.0 4.8 0.00 0.03 0.00 92 1014.3
20260906083011 14 302 0.0 1.6 0.00 0.03 0.00 92 1014.3
20260906081511 14 360 0.0 3.2 0.00 0.03 0.00 92 1014.1
20260906080009 14 9 0.0 3.2 0.00 0.03 0.00 92 1014.1
20260906074508 14 148 0.0 1.6 0.00 0.03 0.00 92 1014.0
20260906073015 14 148 0.0 1.6 0.00 0.03 0.00 92 1013.9
20260906071506 14 148 0.0 0.0 0.00 0.03 0.00 92 1013.7
20260906070005 14 148 0.0 0.0 0.00 0.03 0.00 91 1013.7
20260906064504 14 148 0.0 0.0 0.00 0.03 0.00 91 1013.6
20260906063006 14 148 0.0 0.0 0.00 0.03 0.00 91 1013.8
20260906061503 15 148 0.0 1.6 0.00 0.03 0.00 91 1013.9
20260906060002 15 148 0.0 0.0 0.00 0.03 0.00 91 1013.7
20260906054501 15 148 0.0 0.0 0.00 0.03 0.00 91 1013.9
20260906053100 15 148 0.0 0.0 0.00 0.03 0.00 90 1013.9
20260906051559 15 148 0.0 0.0 0.00 0.03 0.00 90 1013.8
20260906050111 15 148 0.0 0.0 0.03 0.03 0.00 90 1013.9
20260906044556 15 148 0.0 4.8 0.03 0.03 0.00 90 1013.9
20260906043107 15 147 0.0 3.2 0.03 0.03 0.00 89 1014.0
20260906041552 16 147 0.0 1.6 0.03 0.03 0.00 88 1014.0
20260906040109 16 100 0.0 3.2 0.00 0.00 0.00 87 1014.0
20260906034548 16 115 0.0 1.6 0.00 0.00 0.00 85 1013.9
20260906033050 16 351 0.0 4.8 0.00 0.00 0.00 84 1013.5
20260906031545 16 20 0.0 0.0 0.00 0.00 0.00 82 1013.5
20260906030043 16 20 0.0 3.2 0.00 0.00 0.00 82 1013.4
20260906024542 16 34 0.0 3.2 0.00 0.00 0.00 82 1013.2
20260906023058 16 198 0.0 1.6 0.00 0.00 0.00 83 1013.2
20260906021542 16 198 0.0 4.8 0.00 0.00 0.00 84 1013.1
20260906020041 17 331 0.0 1.6 0.00 0.00 0.00 85 1013.1
20260906014554 17 331 0.0 0.0 0.00 0.00 0.00 86 1013.3
20260906013041 17 331 0.0 0.0 0.00 0.00 0.00 86 1013.2
20260906011550 17 334 0.0 1.6 0.00 0.00 0.00 87 1013.1
20260906010038 17 334 0.0 0.0 0.00 0.00 0.00 87 1013.0
20260906004539 17 334 0.0 0.0 0.00 0.00 0.00 87 1012.9
20260906003035 17 334 0.0 1.6 0.00 0.00 0.00 87 1012.7
20260906001534 17 333 0.0 6.4 0.00 0.00 0.00 86 1012.6
20260906000032 18 307 0.0 4.8 0.00 0.00 0.00 86 1012.5
20260905234536 18 309 0.0 6.4 0.00 0.00 0.00 86 1012.5
20260905233030 18 21 0.0 4.8 0.00 0.00 0.00 85 1012.1
20260905231529 18 323 1.6 6.4 0.00 0.00 0.00 84 1012.1
20260905230028 18 13 1.6 8.0 0.00 0.00 0.00 83 1012.0
20260905224534 18 331 1.6 6.4 0.00 0.00 0.00 83 1012.1
20260905223032 18 294 0.0 6.4 0.00 0.00 0.00 82 1012.0
20260905221524 19 360 0.0 8.0 0.00 0.00 0.00 81 1011.8
20260905220024 19 294 1.6 8.0 0.00 0.00 0.00 81 1011.7
20260905214523 19 313 0.0 6.4 0.00 0.00 0.00 81 1011.7
20260905213022 19 324 3.2 9.7 0.00 0.00 0.00 82 1011.7
20260905211523 19 56 0.0 4.8 0.00 0.00 0.00 81 1011.5
20260905210020 19 294 1.6 11.3 0.00 0.00 0.00 80 1011.5
20260905204519 19 242 0.0 8.0 0.00 0.00 0.00 80 1011.3
20260905203020 19 329 1.6 9.7 0.00 0.00 0.00 81 1011.2
20260905201521 20 323 3.2 12.9 0.00 0.00 0.00 81 1011.2
20260905200018 20 319 1.6 14.5 0.00 0.00 0.00 80 1011.1
20260905194518 20 355 3.2 16.1 0.00 0.00 0.00 80 1011.2
20260905193021 20 355 3.2 19.3 0.00 0.00 0.00 81 1011.1
20260905191516 19 319 0.0 1.6 0.00 0.00 0.00 87 1011.1
20260905190037 19 320 0.0 1.6 0.00 0.00 0.00 85 1011.1
20260905184514 19 273 0.0 11.3 0.00 0.00 0.00 83 1011.2
20260905183016 20 295 1.6 16.1 0.00 0.00 0.00 80 1011.0
20260905181517 20 169 0.0 14.5 0.00 0.00 0.00 80 1011.0
20260905180019 20 334 1.6 9.7 0.00 0.00 0.00 80 1011.0
20260905174510 20 294 4.8 11.3 0.00 0.00 0.00 80 1010.9
20260905173009 20 245 1.6 16.1 0.00 0.00 0.00 82 1010.9
20260905171508 19 355 3.2 12.9 0.00 0.00 0.00 83 1010.9
20260905170006 19 5 1.6 9.7 0.00 0.00 0.00 83 1011.0
20260905164505 19 259 1.6 12.9 0.00 0.00 0.00 84 1011.0
20260905163005 18 293 1.6 16.1 0.00 0.00 0.00 85 1011.2
20260905161503 18 62 1.6 14.5 0.00 0.00 0.00 84 1011.3
20260905160001 18 313 3.2 12.9 0.00 0.00 0.00 85 1011.2
20260905154502 18 355 1.6 12.9 0.00 0.00 0.00 86 1011.3
20260905153111 18 350 0.0 17.7 0.00 0.00 0.00 86 1011.4
20260905151558 18 34 1.6 14.5 0.00 0.00 0.00 88 1011.4
20260905150055 17 321 0.0 9.7 0.00 0.00 0.00 89 1011.4